EW8073 Weather Reports


time (UTC)temp
C
wind
direction
speed
KPH
gust
KPH
rain 1hr
cm
rain 24hr
cm
rain mn
cm
humidity
%
barometer
mb
20260504032330 17 270 0.0 0.0 0.00 0.00 0.00 28 1009.8
20260504031831 17 270 0.0 0.0 0.00 0.00 0.00 28 1009.8
20260504031332 17 270 0.0 0.0 0.00 0.00 0.00 27 1009.8
20260504030830 18 270 0.0 0.0 0.00 0.00 0.00 27 1009.8
20260504030330 18 270 0.0 0.0 0.00 0.00 0.00 27 1009.8
20260504025831 18 270 0.0 0.0 0.00 0.00 0.00 26 1009.8
20260504025331 18 270 0.0 0.0 0.00 0.00 0.00 26 1009.8
20260504024330 18 270 0.0 0.0 0.00 0.00 0.00 24 1009.7
20260504023830 19 270 0.0 0.0 0.00 0.00 0.00 24 1009.6
20260504023331 19 270 0.0 0.0 0.00 0.00 0.00 23 1009.7
20260504022831 19 270 0.0 0.0 0.00 0.00 0.00 23 1009.6
20260504022330 19 270 0.0 0.0 0.00 0.00 0.00 23 1009.7
20260504021832 20 270 0.0 0.0 0.00 0.00 0.00 22 1009.7
20260504021328 20 336 0.0 0.0 0.00 0.00 0.00 21 1009.6
20260504020826 20 346 0.0 3.2 0.00 0.00 0.00 21 1009.6
20260504020324 20 314 1.6 14.5 0.00 0.00 0.00 21 1009.4
20260504015824 20 41 1.6 14.5 0.00 0.00 0.00 22 1009.5
20260504015325 20 323 0.0 8.0 0.00 0.00 0.00 21 1009.8
20260504014824 20 304 1.6 17.7 0.00 0.00 0.00 21 1009.6
20260504014322 20 55 1.6 17.7 0.00 0.00 0.00 22 1009.5
20260504013820 19 11 0.0 16.1 0.00 0.00 0.00 21 1009.4
20260504013320 19 350 0.0 14.5 0.00 0.00 0.00 21 1009.6
20260504012821 19 329 0.0 0.0 0.00 0.00 0.00 22 1009.8
20260504012320 19 344 0.0 1.6 0.00 0.00 0.00 22 1009.8
20260504011820 19 30 0.0 1.6 0.00 0.00 0.00 23 1009.8
20260504011323 19 100 0.0 0.0 0.00 0.00 0.00 25 1009.5
20260504010821 19 342 0.0 0.0 0.00 0.00 0.00 24 1010.3
20260504005816 20 44 0.0 4.8 0.00 0.00 0.00 24 1010.1
20260504005314 20 92 0.0 4.8 0.00 0.00 0.00 24 1010.1
20260504004813 20 346 0.0 3.2 0.00 0.00 0.00 24 1010.3
20260504004311 20 329 0.0 1.6 0.00 0.00 0.00 24 1010.3
20260504003808 20 0 0.0 4.8 0.00 0.00 0.00 24 1010.3
20260504003306 20 29 0.0 9.7 0.00 0.00 0.00 24 1010.5
20260504002806 20 0 0.0 9.7 0.00 0.00 0.00 24 1010.6
20260504002306 20 90 0.0 0.0 0.00 0.00 0.00 23 1010.6
20260504001806 20 90 0.0 0.0 0.00 0.00 0.00 24 1010.5
20260504001307 20 90 0.0 0.0 0.00 0.00 0.00 23 1010.4
20260504000759 20 90 0.0 0.0 0.00 0.00 0.00 23 1010.3
20260504000254 20 90 0.0 0.0 0.00 0.00 0.00 23 1010.2
20260503234735 20 90 0.0 1.6 0.00 0.00 0.00 22 1010.3
20260503234229 20 90 0.0 14.5 0.00 0.00 0.00 22 1010.3
20260503233724 20 233 1.6 14.5 0.00 0.00 0.00 23 1010.4
20260503233223 21 331 3.2 35.4 0.00 0.00 0.00 22 1010.6
20260503232711 21 299 1.6 35.4 0.00 0.00 0.00 20 1011.1
20260503232205 21 236 0.0 4.8 0.00 0.00 0.00 18 1010.5
20260503231700 21 296 0.0 4.8 0.00 0.00 0.00 18 1010.3
20260503230647 22 276 0.0 6.4 0.00 0.00 0.00 18 1010.1
20260503230142 22 292 0.0 3.2 0.00 0.00 0.00 18 1009.9
20260503225636 22 351 0.0 3.2 0.00 0.00 0.00 18 1010.1
20260503225131 22 264 0.0 3.2 0.00 0.00 0.00 17 1009.9
20260503224120 22 332 0.0 11.3 0.00 0.00 0.00 17 1010.1
20260503223613 22 0 0.0 11.3 0.00 0.00 0.00 16 1009.9
20260503223107 22 254 0.0 1.6 0.00 0.00 0.00 16 1010.1
20260503222600 22 252 0.0 0.0 0.00 0.00 0.00 16 1009.9
20260503222055 22 256 0.0 8.0 0.00 0.00 0.00 16 1009.9
20260503221547 22 257 0.0 9.7 0.00 0.00 0.00 16 1010.2
20260503221042 22 229 0.0 11.3 0.00 0.00 0.00 16 1010.3
20260503220535 22 251 0.0 11.3 0.00 0.00 0.00 16 1010.3
20260503220029 22 254 1.6 17.7 0.00 0.00 0.00 16 1010.4
20260503215523 22 213 1.6 17.7 0.00 0.00 0.00 16 1010.5
20260503214511 22 183 3.2 19.3 0.00 0.00 0.00 17 1010.6
20260503213500 23 182 1.6 29.0 0.00 0.00 0.00 16 1010.6
20260503212953 23 301 1.6 17.7 0.00 0.00 0.00 15 1010.9
20260503212447 24 42 0.0 6.4 0.00 0.00 0.00 14 1010.9
20260503211941 24 340 0.0 6.4 0.00 0.00 0.00 13 1010.8
20260503211435 24 263 0.0 1.6 0.00 0.00 0.00 13 1010.8
20260503210929 24 236 0.0 1.6 0.00 0.00 0.00 13 1010.8
20260503210423 24 187 0.0 0.0 0.00 0.00 0.00 13 1010.6
20260503205919 25 80 0.0 0.0 0.00 0.00 0.00 13 1010.8
20260503205411 25 80 0.0 11.3 0.00 0.00 0.00 14 1010.9
20260503204906 24 0 0.0 11.3 0.00 0.00 0.00 13 1011.0
20260503204400 24 327 0.0 1.6 0.00 0.00 0.00 13 1011.1
20260503203854 24 346 0.0 3.2 0.00 0.00 0.00 13 1011.2
20260503202841 24 275 0.0 0.0 0.00 0.00 0.00 13 1011.3
20260503202335 24 275 0.0 0.0 0.00 0.00 0.00 13 1011.5
20260503201323 23 245 0.0 1.6 0.00 0.00 0.00 13 1011.5
20260503200819 23 267 0.0 1.6 0.00 0.00 0.00 14 1011.7
20260503200313 23 280 0.0 8.0 0.00 0.00 0.00 13 1011.7
20260503195805 23 355 0.0 8.0 0.00 0.00 0.00 14 1011.7
20260503195300 23 306 0.0 6.4 0.00 0.00 0.00 13 1011.8
20260503194753 23 300 0.0 9.7 0.00 0.00 0.00 13 1011.8
20260503194247 23 336 4.8 19.3 0.00 0.00 0.00 13 1011.9
20260503193237 25 5 3.2 19.3 0.00 0.00 0.00 12 1011.9
20260503192737 24 283 1.6 19.3 0.00 0.00 0.00 13 1012.0
20260503192237 24 22 0.0 6.4 0.00 0.00 0.00 13 1012.2
20260503191739 24 5 0.0 6.4 0.00 0.00 0.00 13 1012.3
20260503191237 24 306 1.6 14.5 0.00 0.00 0.00 12 1012.4
20260503190738 24 317 3.2 14.5 0.00 0.00 0.00 12 1012.5
20260503190237 24 271 3.2 16.1 0.00 0.00 0.00 12 1012.5
20260503185733 24 315 3.2 16.1 0.00 0.00 0.00 13 1012.7
20260503184731 24 19 4.8 17.7 0.00 0.00 0.00 13 1012.6
20260503183732 24 15 1.6 14.5 0.00 0.00 0.00 12 1013.0
20260503183232 23 76 1.6 12.9 0.00 0.00 0.00 12 1013.1
20260503182732 23 217 1.6 8.0 0.00 0.00 0.00 12 1013.2
20260503182227 23 313 1.6 11.3 0.00 0.00 0.00 13 1013.3
20260503181228 23 239 0.0 4.8 0.00 0.00 0.00 13 1013.4
20260503180227 22 330 0.0 3.2 0.00 0.00 0.00 15 1013.7
20260503175727 22 5 0.0 3.2 0.00 0.00 0.00 16 1013.8
20260503175227 22 317 0.0 3.2 0.00 0.00 0.00 16 1013.9
20260503174727 22 252 0.0 0.0 0.00 0.00 0.00 17 1013.9
20260503174228 22 277 0.0 1.6 0.00 0.00 0.00 18 1014.0
20260503173723 21 263 0.0 4.8 0.00 0.00 0.00 17 1014.1
20260503173224 21 252 0.0 4.8 0.00 0.00 0.00 17 1014.1
20260503172724 21 245 0.0 3.2 0.00 0.00 0.00 18 1014.3
20260503172223 21 257 0.0 3.2 0.00 0.00 0.00 18 1014.3
20260503171724 21 254 0.0 0.0 0.00 0.00 0.00 19 1014.4
20260503171223 21 250 0.0 6.4 0.00 0.00 0.00 19 1014.4
20260503170225 21 251 0.0 11.3 0.00 0.00 0.00 20 1014.6
20260503160209 18 261 0.0 3.2 0.00 0.00 0.00 26 1015.1
20260503150645 16 248 0.0 1.6 0.00 0.00 0.00 28 1015.4
20260503130926 10 239 0.0 0.0 0.00 0.00 0.00 40 1015.5
20260503130421 10 241 0.0 0.0 0.00 0.00 0.00 40 1015.4
20260503110703 9 207 0.0 0.0 0.00 0.00 0.00 41 1014.7
20260503110157 9 207 0.0 0.0 0.00 0.00 0.00 41 1014.8
20260503081540 8 120 0.0 0.0 0.00 0.00 0.00 37 1015.3
20260503081040 8 120 0.0 0.0 0.00 0.00 0.00 37 1015.3
20260503072034 10 120 0.0 0.0 0.00 0.00 0.00 36 1015.8
20260503071531 10 120 0.0 0.0 0.00 0.00 0.00 36 1015.8
20260503071029 10 120 0.0 0.0 0.00 0.00 0.00 36 1015.8
20260503055001 11 119 0.0 0.0 0.00 0.00 0.00 31 1015.8
20260503054456 11 119 0.0 0.0 0.00 0.00 0.00 31 1015.7
20260503053950 11 119 0.0 0.0 0.00 0.00 0.00 31 1015.8
20260503053442 12 119 0.0 0.0 0.00 0.00 0.00 31 1015.8
20260503052943 12 119 0.0 0.0 0.00 0.00 0.00 30 1015.8
20260503052441 12 119 0.0 0.0 0.00 0.00 0.00 30 1015.8
20260503051941 12 119 0.0 0.0 0.00 0.00 0.00 30 1015.8
20260503051440 12 119 0.0 0.0 0.00 0.00 0.00 29 1015.8
20260503050438 13 119 0.0 0.0 0.00 0.00 0.00 29 1015.8
20260503045939 13 119 0.0 0.0 0.00 0.00 0.00 29 1015.7
20260503045439 13 119 0.0 0.0 0.00 0.00 0.00 29 1015.7
20260503044941 13 119 0.0 0.0 0.00 0.00 0.00 29 1015.8
20260503043937 13 119 0.0 0.0 0.00 0.00 0.00 29 1015.8
20260503042936 13 119 0.0 0.0 0.00 0.00 0.00 28 1015.8
20260503042436 13 119 0.0 0.0 0.00 0.00 0.00 28 1015.8
20260503041432 13 119 0.0 0.0 0.00 0.00 0.00 28 1015.8
20260503040432 14 119 0.0 0.0 0.00 0.00 0.00 27 1015.8
20260503035432 14 119 0.0 0.0 0.00 0.00 0.00 26 1015.9
20260503034932 15 119 0.0 0.0 0.00 0.00 0.00 25 1015.8
20260503034432 15 119 0.0 0.0 0.00 0.00 0.00 24 1015.8
20260503033432 15 119 0.0 0.0 0.00 0.00 0.00 22 1015.8